CAPE
726 708 559 350 304 626 273 379 276 217 190 182 67 32 12 12 0 0 0 0 0 0 0 0 0 0 0 0 0 0 0 0
511 797 570 281 272 475 345 391 316 265 245 217 103 54 98 48 0 0 0 0 0 0 0 0 0 0 0 0 0 0 0 0
207 507 572 452 404 477 378 357 362 343 369 250 85 88 107 34 0 0 0 0 0 0 0 0 0 0 0 0 0 0 0 0
105 171 512 553 523 629 500 448 471 466 458 285 123 92 77 0 0 0 0 0 0 0 0 0 0 0 0 0 0 0 0 0
341 285 561 572 664 758 624 642 597 554 522 210 150 123 0 0 0 0 0 0 0 0 0 0 0 0 0 0 0 0 0 0
440 759 788 823 785 736 710 724 670 664 213 284 131 0 0 0 0 0 0 0 0 0 0 0 0 0 0 0 0 0 0 0
591 818 1099 1108 996 885 791 850 790 395 518 437 96 7 4 4 10 0 0 0 1 1 0 0 0 0 0 0 0 0 0 0
795 933 1113 1214 1059 690 520 503 425 502 579 19 9 18 26 30 3 0 0 0 0 0 0 0 0 0 0 0 0 0 0 0
868 1069 1134 1139 881 633 480 386 289 202 32 4 16 49 34 1 6 15 1 0 1 0 1 0 0 0 0 0 0 0 0 0
953 1116 1215 937 756 658 492 315 492 183 126 62 62 54 8 16 29 0 0 0 1 0 0 0 0 0 0 0 0 0 0 0
1043 1166 976 798 632 521 398 325 124 168 214 51 1 0 0 2 0 0 1 8 5 12 1 0 0 0 0 0 0 1 0 0
858 785 634 526 390 232 104 68 62 39 5 0 1 6 6 5 6 6 13 18 23 2 1 0 0 0 0 0 0 0 0 0
558 482 451 410 234 28 0 0 0 0 36 68 20 0 13 8 14 12 7 17 21 0 0 0 0 0 0 0 0 0 0 0
435 427 417 282 74 11 4 2 0 47 57 70 66 25 0 0 2 3 3 4 2 0 0 0 0 0 0 0 0 0 0 0
363 328 256 148 81 68 44 21 36 45 46 58 49 22 1 0 0 0 0 0 0 0 0 0 0 0 0 0 0 2 7 4
331 273 157 69 42 48 35 33 37 53 59 56 30 2 1 0 1 0 0 0 0 0 0 0 0 0 0 0 0 5 10 6
0 36 51 45 44 43 40 40 52 63 55 27 9 3 0 3 6 1 0 0 0 0 0 0 0 0 0 0 4 4 5 4
0 0 0 8 35 69 50 62 61 54 27 11 6 6 1 3 0 0 1 0 0 0 0 0 0 0 0 0 3 1 6 3
0 0 0 3 29 46 64 69 50 29 12 1 1 2 3 4 1 6 0 0 0 0 0 0 0 0 0 0 0 4 4 1
CIN
-81 -105 -148 -193 -197 -75 -140 -106 -102 -96 -81 -83 -65 -42 -44 -68 -0 -0 -0 -0 -0 -0 -0 -0 -0 -0 -0 -0 -0 -0 -0 -0
-70 -95 -115 -88 -48 -108 -128 -148 -123 -111 -64 -77 -113 -65 -42 -59 -0 -0 -0 -0 -0 -0 -0 -0 -0 -0 -0 -0 -0 -0 -0 -0
-67 -100 -114 -103 -61 -51 -96 -150 -100 -84 -73 -90 -77 -63 -42 -91 -0 -0 -0 -0 -0 -0 -0 -0 -0 -0 -0 -0 -0 -0 -0 -0
-90 -123 -133 -115 -62 -45 -42 -51 -44 -81 -57 -63 -107 -60 -56 -0 -0 -0 -0 -0 -0 -0 -0 -0 -0 -0 -0 -0 -0 -0 -0 -0
-132 -89 -172 -119 -85 -35 -57 -35 -26 -33 -33 -126 -120 -57 -0 -0 -0 -0 -0 -0 -0 -0 -0 -0 -0 -0 -0 -0 -0 -0 -0 -0
-161 -177 -117 -77 -45 -65 -44 -33 -27 -8 -104 -82 -127 -0 -0 -0 -0 -0 -0 -0 -0 -0 -0 -0 -0 -0 -0 -0 -0 -0 -0 -0
-169 -189 -89 -48 -41 -75 -59 -22 -13 -60 -26 -26 -121 -117 -134 -99 -70 -4 -0 -0 -0 -0 -0 -0 -0 -0 -0 -0 -0 -0 -0 -0
-150 -94 -103 -52 -103 -77 -148 -105 -64 -18 -7 -131 -123 -72 -36 -12 -19 -0 -0 -0 -0 -3 -0 -0 -0 -0 -0 -0 -0 -0 -0 -0
-118 -96 -76 -73 -74 -45 -48 -82 -52 -31 -63 -57 -27 -5 -8 -49 -28 -32 -0 -0 -37 -0 -0 -0 -0 -0 -0 -0 -0 -0 -0 -0
-98 -100 -76 -75 -94 -51 -53 -61 -11 -27 -7 -1 -0 -0 -14 -14 -25 -0 -0 -20 -52 -0 -0 -0 -0 -0 -0 -0 -0 -0 -0 -0
-77 -80 -88 -79 -65 -53 -42 -31 -46 -8 -0 -8 -53 -0 -0 -19 -0 -0 -42 -8 -1 -0 -3 -0 -0 -0 -0 -0 -0 -2 -0 -0
-93 -100 -121 -118 -96 -78 -86 -70 -54 -59 -18 -0 -10 -16 -34 -33 -33 -13 -6 -2 -2 -16 -1 -0 -0 -0 -0 -0 -0 -0 -0 -0
-79 -71 -46 -58 -84 -144 -0 -0 -0 -0 -9 -8 -12 -0 -7 -6 -4 -4 -7 -3 -2 -0 -0 -0 -0 -0 -0 -0 -0 -0 -0 -0
-45 -29 -25 -34 -45 -51 -55 -57 -0 -8 -5 -9 -6 -3 -0 -1 -2 -1 -2 -5 -2 -0 -0 -0 -0 -0 -0 -0 -0 -0 -0 -0
-14 -14 -20 -26 -47 -72 -53 -3 -5 -7 -11 -9 -4 -0 -0 -0 -0 -0 -0 -0 -0 -0 -0 -0 -0 -0 -0 -0 -0 -4 -4 -2
-25 -12 -22 -57 -20 -8 -4 -8 -6 -6 -6 -3 -0 -0 -0 -0 -0 -0 -0 -0 -0 -0 -0 -0 -0 -0 -0 -0 -0 -9 -4 -3
-0 -34 -60 -7 -3 -1 -12 -8 -6 -5 -2 -1 -0 -0 -0 -0 -0 -0 -0 -0 -0 -0 -0 -0 -0 -0 -0 -1 -6 -8 -6 -2
-0 -0 -0 -66 -27 -3 -13 -3 -4 -5 -2 -0 -0 -1 -1 -0 -0 -0 -0 -0 -0 -0 -0 -0 -0 -0 -0 -0 -8 -5 -1 -1
-0 -0 -0 -31 -33 -21 -11 -4 -9 -4 -7 -0 -1 -0 -0 -0 -0 -0 -0 -0 -0 -0 -0 -0 -0 -0 -0 -0 -0 -1 -1 -1
Wind_Speed
15 17 19 19 20 17 17 18 19 19 20 19 nan nan nan nan nan nan nan nan nan nan nan nan nan nan nan nan nan nan nan nan
14 17 18 19 17 24 27 24 26 25 23 18 14 nan nan nan nan nan nan nan nan nan nan nan nan nan nan nan nan nan nan nan
13 17 18 21 24 21 18 23 28 26 19 14 nan nan 19 nan nan nan nan nan nan nan nan nan nan nan nan nan nan nan nan nan
16 20 20 20 23 25 18 25 23 18 18 17 19 nan nan nan nan nan nan nan nan nan nan nan nan nan nan nan nan nan nan nan
19 21 25 29 26 20 21 24 20 15 19 23 30 32 nan nan nan nan nan nan nan nan nan nan nan nan nan nan nan nan nan nan
18 23 27 26 26 24 22 18 17 19 21 27 33 nan nan nan nan nan nan nan nan nan nan nan nan nan nan nan nan nan nan nan
15 18 22 22 21 22 18 22 20 24 28 32 nan nan nan nan nan nan nan nan nan nan nan nan nan nan nan nan nan nan nan nan
23 22 18 18 18 19 22 26 25 30 37 nan nan nan nan nan nan nan nan nan nan nan nan nan nan nan nan nan nan nan nan nan
18 15 14 16 21 24 30 33 35 37 nan nan nan nan nan nan nan nan nan nan nan nan nan nan nan nan nan nan nan nan nan nan
14 16 17 23 26 30 35 40 41 43 47 nan nan nan nan nan nan nan nan nan nan nan nan nan nan nan nan nan nan nan nan nan
19 21 23 26 32 37 40 44 49 50 52 nan nan nan nan nan nan nan nan nan nan nan nan nan nan nan nan nan nan nan nan nan
23 24 26 31 36 43 47 nan nan nan nan nan nan nan nan nan nan nan nan nan nan nan nan nan nan nan nan nan nan nan nan nan
26 28 33 36 39 nan nan nan nan nan nan nan nan nan nan nan nan nan nan nan nan nan nan nan nan nan nan nan nan nan nan nan
29 35 38 39 nan nan nan nan nan nan nan nan nan nan nan nan nan nan nan nan nan nan nan nan nan nan nan nan nan nan nan nan
33 36 38 41 nan nan nan nan nan nan nan nan nan nan nan nan nan nan nan nan nan nan nan nan nan nan nan nan nan nan nan nan
34 38 39 nan nan nan nan nan nan nan nan nan nan nan nan nan nan nan nan nan nan nan nan nan nan nan nan nan nan nan nan nan
nan nan nan nan nan nan nan nan nan nan nan nan nan nan nan nan nan nan nan nan nan nan nan nan nan nan nan nan nan nan nan nan
nan nan nan nan nan nan nan nan nan nan nan nan nan nan nan nan nan nan nan nan nan nan nan nan nan nan nan nan nan nan nan nan
nan nan nan nan nan nan nan nan nan nan nan nan nan nan nan nan nan nan nan nan nan nan nan nan nan nan nan nan nan nan nan nan
Wind_Direction
10 7 10 359 357 358 338 334 332 330 324 313 nan nan nan nan nan nan nan nan nan nan nan nan nan nan nan nan nan nan nan nan
10 17 16 1 346 346 340 335 335 330 332 332 331 nan nan nan nan nan nan nan nan nan nan nan nan nan nan nan nan nan nan nan
353 14 7 358 344 348 334 336 336 336 333 322 nan nan 309 nan nan nan nan nan nan nan nan nan nan nan nan nan nan nan nan nan
338 355 354 345 341 342 339 335 335 327 324 307 301 nan nan nan nan nan nan nan nan nan nan nan nan nan nan nan nan nan nan nan
325 330 341 343 344 319 330 327 332 330 309 313 318 315 nan nan nan nan nan nan nan nan nan nan nan nan nan nan nan nan nan nan
337 333 333 330 327 326 325 330 328 316 313 311 310 nan nan nan nan nan nan nan nan nan nan nan nan nan nan nan nan nan nan nan
326 317 320 326 322 313 320 323 319 317 312 307 nan nan nan nan nan nan nan nan nan nan nan nan nan nan nan nan nan nan nan nan
326 321 324 324 320 316 318 306 298 299 298 nan nan nan nan nan nan nan nan nan nan nan nan nan nan nan nan nan nan nan nan nan
329 326 330 320 307 311 305 306 302 300 nan nan nan nan nan nan nan nan nan nan nan nan nan nan nan nan nan nan nan nan nan nan
316 313 314 313 309 309 311 306 302 302 301 nan nan nan nan nan nan nan nan nan nan nan nan nan nan nan nan nan nan nan nan nan
315 318 321 316 310 308 306 307 309 308 306 nan nan nan nan nan nan nan nan nan nan nan nan nan nan nan nan nan nan nan nan nan
321 323 322 315 311 310 310 nan nan nan nan nan nan nan nan nan nan nan nan nan nan nan nan nan nan nan nan nan nan nan nan nan
323 320 315 311 309 nan nan nan nan nan nan nan nan nan nan nan nan nan nan nan nan nan nan nan nan nan nan nan nan nan nan nan
315 309 311 311 nan nan nan nan nan nan nan nan nan nan nan nan nan nan nan nan nan nan nan nan nan nan nan nan nan nan nan nan
309 306 313 320 nan nan nan nan nan nan nan nan nan nan nan nan nan nan nan nan nan nan nan nan nan nan nan nan nan nan nan nan
308 310 315 nan nan nan nan nan nan nan nan nan nan nan nan nan nan nan nan nan nan nan nan nan nan nan nan nan nan nan nan nan
nan nan nan nan nan nan nan nan nan nan nan nan nan nan nan nan nan nan nan nan nan nan nan nan nan nan nan nan nan nan nan nan
nan nan nan nan nan nan nan nan nan nan nan nan nan nan nan nan nan nan nan nan nan nan nan nan nan nan nan nan nan nan nan nan
nan nan nan nan nan nan nan nan nan nan nan nan nan nan nan nan nan nan nan nan nan nan nan nan nan nan nan nan nan nan nan nan